Lid_Strength_Index
-0 -0 0 3 11 12 15 12 9 10 9 6 5 7 9 8 9 12 2 1 0 0 -0 -1 -1 -1 -1 -1 -1 -1 -1 -1 -1 -1 -1 -1 -1 -1 -1 -1 -1 -1 -2 -2 -1 -1 -1 -2 -1
1 2 2 6 13 16 15 10 11 9 7 6 6 6 8 9 5 4 3 0 -0 -0 -0 -0 -1 -1 -1 -1 -1 -1 -1 -1 -1 -1 -1 -1 -1 -1 -1 -1 -1 -1 -2 -2 -2 -2 -2 -2 -2
1 2 7 10 13 16 15 10 9 7 6 6 7 5 7 8 4 4 1 0 -0 0 -0 -0 -1 -1 -1 -1 -1 -1 -1 -1 -1 -1 -1 -1 -1 -1 -2 -1 -2 -2 -2 -2 -2 -2 -2 -2 -2
2 4 6 12 14 12 11 9 7 8 6 6 6 9 5 3 3 2 0 -0 0 0 -0 -1 -1 -1 -1 -1 -1 -1 -1 -1 -1 -1 -1 -1 -1 -1 -1 -1 -1 -2 -1 -1 -2 -2 -2 -2 -2
2 6 12 13 13 11 9 7 7 8 8 7 6 9 7 3 1 1 1 0 1 0 -0 -0 -1 -1 -1 -1 -1 -1 -1 -1 -1 -1 -1 -1 -1 -1 -1 -2 -2 -2 -1 -1 -1 -2 -2 -2 -2
7 7 13 15 13 10 8 7 7 8 7 7 7 8 7 2 2 1 0 0 0 0 -0 -0 -1 -1 -1 -1 -2 -2 -1 -1 -1 -1 -1 -1 -1 -1 -2 -2 -2 -2 -2 -2 -2 -2 -2 -2 -2
9 10 13 13 13 11 9 6 8 8 8 8 5 9 6 4 2 1 1 0 0 1 1 0 -0 -1 -1 -1 -1 -1 -1 -1 -1 -1 -1 -1 -2 -1 -2 -2 -2 -2 -2 -1 -2 -2 -2 -2 -1
7 9 12 12 13 13 8 7 6 7 8 4 4 9 8 4 1 1 1 2 1 1 1 1 0 -0 -0 -0 -1 -1 -1 -1 -1 -1 -1 -1 -1 -1 -1 -1 -2 -2 -2 -2 -2 -1 -1 -2 -2
4 11 14 12 12 11 7 8 5 4 6 5 5 5 4 2 1 2 2 2 1 1 0 1 1 0 -0 -0 -1 -1 -1 -1 -1 -1 -1 -1 -0 -1 -1 -1 -2 -2 -2 -2 -2 -1 -2 -1 -2
8 12 12 8 8 10 8 8 7 7 7 7 6 4 3 2 3 3 3 3 3 2 1 1 1 1 -0 -1 -0 -0 -0 -0 -0 -1 -0 -1 -1 -1 -1 -1 -2 -2 -2 -1 -1 -1 -1 -1 -1
8 11 8 8 7 7 8 8 5 8 9 7 7 6 4 4 3 4 3 3 3 1 1 1 1 1 1 0 0 0 -0 -0 -0 -1 -0 -0 -1 -1 -1 -0 -1 -1 -1 -1 -1 -1 -1 -1 -1
10 8 8 7 7 7 8 7 7 6 7 5 5 4 4 4 4 4 3 3 2 2 1 1 1 1 1 0 0 0 -0 -0 -0 -0 -0 -1 -1 -1 -1 -0 -0 0 -0 -1 -1 -1 -1 -1 -1
10 8 7 7 6 7 7 8 8 7 5 4 4 4 4 4 4 3 2 2 2 2 1 1 1 1 1 0 0 -0 -0 -0 -1 -1 -1 -1 -1 -0 -0 -0 -0 -0 1 0 -1 -0 -1 -1 -0
8 8 8 7 7 7 9 8 7 7 5 5 5 5 4 4 4 3 3 3 2 2 1 1 1 1 0 -0 0 0 0 -0 -0 -0 -1 -1 -1 -0 -0 -0 -0 0 -0 -1 -1 -1 -0 -0 -0
7 10 9 8 8 9 7 11 10 6 5 6 6 5 4 4 3 3 3 3 2 1 1 1 1 0 0 0 0 0 0 -0 0 -0 -1 -1 -1 -0 0 -0 -0 -1 -1 -1 -1 -1 -0 -0 -0
10 10 14 10 8 8 8 14 9 6 6 7 6 5 5 4 4 3 2 2 2 2 1 1 0 0 -0 0 0 0 0 0 1 0 -1 -1 -0 -0 0 -0 -0 -0 -0 -0 -0 -0 0 0 -0
11 16 14 12 8 9 9 12 8 6 6 7 6 6 5 5 4 3 2 2 2 1 1 1 1 1 1 0 0 0 0 1 0 -0 -1 -1 -1 -0 -0 -1 0 1 -0 -0 0 0 -0 0 -0
15 15 13 14 10 9 11 11 9 7 7 7 7 6 6 5 4 3 2 2 1 1 1 1 1 1 1 1 1 1 1 1 -0 -1 -1 -0 -1 -1 -1 -0 2 1 -0 0 0 0 1 0 1
11 13 14 12 10 11 11 11 10 8 7 7 7 6 6 5 4 3 2 2 2 1 1 1 2 1 1 1 2 2 2 1 -0 -0 -1 0 -1 -1 -1 2 1 -0 1 0 -0 0 1 1 1
12 13 14 11 10 10 12 12 10 8 8 7 7 7 6 6 5 4 3 2 2 2 1 2 1 1 1 1 1 1 1 -0 -0 -0 -1 -1 -1 -1 -0 1 0 -1 0 -0 0 0 1 2 2
12 13 13 13 11 10 11 13 12 9 8 7 6 6 5 5 5 4 4 3 2 2 2 2 2 1 1 0 1 1 0 0 0 0 -0 -0 0 -1 -1 -1 -1 0 1 1 0 0 0 2 2
14 10 10 12 13 16 11 19 14 11 10 8 7 6 6 5 5 4 4 3 3 2 1 1 1 1 1 0 1 1 2 2 1 1 0 0 -0 -1 -1 -1 -0 1 1 -0 -0 -0 0 1 1
11 9 10 11 13 14 14 16 14 11 12 10 8 7 6 5 5 4 4 3 2 2 2 1 1 1 1 1 1 1 1 1 1 0 1 0 -0 -1 -1 -0 0 2 -0 -1 -1 -0 0 0 1
9 11 11 12 14 18 15 16 16 14 12 10 8 7 6 5 5 4 3 3 2 2 2 1 1 1 1 1 1 1 2 1 1 1 1 1 0 0 -0 -0 -0 -1 -1 -1 -1 -1 -0 0 0
10 13 19 19 19 20 14 16 14 10 9 9 8 7 6 5 5 4 4 4 3 3 2 2 1 2 2 2 1 1 1 1 1 1 1 1 1 0 0 -0 -0 -0 -1 -1 -1 -1 -0 -0 0
12 13 17 21 21 18 14 17 14 8 7 7 6 6 5 5 5 4 4 3 3 3 2 2 2 2 1 2 1 1 1 1 1 1 1 1 1 0 -0 -0 -0 -0 -1 -1 -0 -1 -0 -0 0
12 15 11 16 15 18 16 13 10 8 8 7 7 6 6 5 5 4 4 3 3 3 2 2 2 2 1 1 1 1 1 1 1 0 1 0 -0 0 -0 -0 -0 -0 -0 -0 -1 -0 -0 -0 -0
10 9 15 14 20 21 18 16 15 11 10 8 8 7 6 5 5 4 4 3 3 2 2 2 1 2 1 1 1 1 1 0 0 0 1 0 -0 -0 -0 -0 -0 -0 -1 -1 -0 -0 -0 0 0
13 14 14 12 14 19 20 17 10 10 10 9 8 7 6 5 5 4 4 3 3 2 2 2 2 2 1 1 1 1 1 0 0 1 0 0 -0 -0 -0 -0 -0 0 0 -0 -0 0 0 0 0
12 13 13 14 14 15 16 14 9 9 8 8 7 7 6 5 5 4 4 3 3 3 2 2 2 2 1 1 1 1 1 0 1 1 0 -0 0 -0 -0 -0 0 0 -0 -0 0 1 0 1 1